Location: Bernadets
(43.3537°N, 0.3167°E)
Time: 01:00:53
(UTC+00:00)

CZ-4 R/B - Pass Details

Date: 24 October 2021
Orbit: 530 x 595 km, 97.8° (Epoch: 06 December)

Event Time Altitude Azimuth Distance (km) Brightness Sun altitude
Exits shadow 18:01:16 - 137° (SE) 2,415 4.2 -11.5°
Reaches altitude 10° 18:02:45 10° 129° (SE) 1,859 3.6 -11.8°
Maximum altitude 18:06:15 29° 69° (ENE) 1,067 2.2 -12.4°
Drops below altitude 10° 18:09:49 10° 9° (N) 1,905 3.9 -13.1°
Sets 18:12:11 0° 358° (N) 2,820 4.9 -13.5°
